Weather History for PHNL - July, 2012

Change the Weather History Date:

Thursday, July 12, 2012

  Actual Average Record
Temperature  
Mean Temperature 80 °F 81 °F  
Max Temperature 86 °F 88 °F 90 °F (1985)
Min Temperature 74 °F 74 °F 69 °F (1958)
Degree Days  
Heating Degree Days 0 0  
Month to date heating degree days 0 0  
Since 1 June heating degree days 0 0  
Since 1 July heating degree days 0 0  
Cooling Degree Days 15 16  
Month to date cooling degree days 171 192  
Year to date cooling degree days 2162 2150  
Since 1 June cooling degree days 588 648  
Growing Degree Days 30 (Base 50)    
Moisture  
Dew Point 63 °F    
Average Humidity 56    
Maximum Humidity 69    
Minimum Humidity 43    
Precipitation  
Precipitation 0.00 in 0.01 in 0.09 in (1999)
Month to date precipitation 0.07 0.15  
Year to date precipitation 7.63 7.98  
Snow  
Snow 0.00 in - - ()
Month to date snowfall 0.0  
Since 1 June snowfall 0.0  
Since 1 July snowfall 0.0  
Snow Depth 0.00 in    
Sea Level Pressure  
Sea Level Pressure 30.01 in    
Wind  
Wind Speed 13 mph (NE)    
Max Wind Speed 21 mph    
Max Gust Speed 30 mph    
Visibility 10 miles    
Events      
T = Trace of Precipitation, MM = Missing Value Source: NWS Daily Summary

Daily Weather History Graph

Daily Weather History Graph

Search for Another Location

Airport or City:

Trip Planner

Search our weather history database for the weather conditions in past years. The results will help you decide how hot, cold, wet, or windy it might be!

Date:

Astronomy

Jul. 12, 2012 Rise Set
Actual Time 5:57 AM HST 7:17 PM HST
Civil Twilight 5:32 AM HST 7:41 PM HST
Nautical Twilight 5:03 AM HST 8:10 PM HST
Astronomical Twilight 4:33 AM HST 8:40 PM HST
Moon 12:53 AM HST (7/12) 2:10 PM HST (7/12)
Length of Visible Light 14h 08m
Length of Day
13h 19m
Waning Crescent, 33% of the Moon is Illuminated
Jul 12
Waning Crescent
Jul 18
New
Jul 25
First Quarter
Aug 1
Full
Aug 9
Last Quarter

Hourly Weather History & Observations

Time (HST) Temp. Heat Index Dew Point Humidity Pressure Visibility Wind Dir Wind Speed Gust Speed Precip Events Conditions
12:53 AM 75.0 °F - 63.0 °F 66% 30.03 in 10.0 mi ENE 13.8 mph - N/A   Partly Cloudy
1:53 AM 75.0 °F - 63.0 °F 66% 30.01 in 10.0 mi ENE 12.7 mph - N/A   Partly Cloudy
2:53 AM 75.0 °F - 63.0 °F 66% 30.01 in 10.0 mi NE 10.4 mph - N/A   Scattered Clouds
3:53 AM 73.9 °F - 63.0 °F 68% 30.00 in 10.0 mi NE 10.4 mph - N/A   Scattered Clouds
4:53 AM 75.0 °F - 63.0 °F 66% 30.00 in 10.0 mi ENE 6.9 mph - N/A   Mostly Cloudy
5:53 AM 73.9 °F - 63.0 °F 68% 30.01 in 10.0 mi NE 8.1 mph - N/A   Scattered Clouds
6:53 AM 75.0 °F - 64.0 °F 69% 30.02 in 10.0 mi ENE 15.0 mph - N/A   Scattered Clouds
7:53 AM 77.0 °F - 64.0 °F 64% 30.03 in 10.0 mi ENE 9.2 mph - N/A   Mostly Cloudy
8:53 AM 80.1 °F 81.7 °F 64.0 °F 58% 30.04 in 10.0 mi ENE 11.5 mph 19.6 mph N/A   Mostly Cloudy
9:53 AM 80.1 °F 81.5 °F 63.0 °F 56% 30.04 in 10.0 mi ENE 15.0 mph 20.7 mph N/A   Mostly Cloudy
10:53 AM 82.9 °F 84.6 °F 64.9 °F 54% 30.03 in 10.0 mi NE 13.8 mph 19.6 mph N/A   Mostly Cloudy
11:53 AM 82.9 °F 84.0 °F 63.0 °F 51% 30.02 in 10.0 mi NE 13.8 mph 23.0 mph N/A   Mostly Cloudy
12:53 PM 84.0 °F 84.9 °F 63.0 °F 49% 30.01 in 10.0 mi East 15.0 mph 24.2 mph N/A   Scattered Clouds
1:53 PM 84.9 °F 84.4 °F 59.0 °F 41% 30.00 in 10.0 mi ENE 18.4 mph 28.8 mph N/A   Scattered Clouds
2:53 PM 86.0 °F 86.3 °F 62.1 °F 44% 29.99 in 10.0 mi ENE 16.1 mph 21.9 mph N/A   Scattered Clouds
3:53 PM 84.9 °F 85.9 °F 63.0 °F 48% 29.98 in 10.0 mi NE 12.7 mph 21.9 mph N/A   Partly Cloudy
4:53 PM 82.9 °F 84.0 °F 63.0 °F 51% 29.97 in 10.0 mi NE 16.1 mph 21.9 mph N/A   Scattered Clouds
5:53 PM 81.0 °F 81.7 °F 61.0 °F 50% 29.97 in 10.0 mi NE 16.1 mph 24.2 mph N/A   Partly Cloudy
6:53 PM 79.0 °F - 64.0 °F 60% 29.99 in 10.0 mi ENE 15.0 mph - N/A   Partly Cloudy
7:53 PM 77.0 °F - 64.9 °F 66% 30.00 in 10.0 mi ENE 9.2 mph - N/A   Partly Cloudy
8:53 PM 77.0 °F - 66.0 °F 69% 30.02 in 10.0 mi NE 10.4 mph - N/A   Partly Cloudy
9:53 PM 77.0 °F - 66.0 °F 69% 30.02 in 10.0 mi NNE 6.9 mph - N/A   Partly Cloudy
10:53 PM 75.9 °F - 66.9 °F 74% 30.03 in 10.0 mi NE 8.1 mph - N/A   Partly Cloudy
11:53 PM 75.9 °F - 66.9 °F 74% 30.01 in 10.0 mi NNE 6.9 mph - N/A   Partly Cloudy